Lincoln County, Oregon, United States
Lat: 44.65N, Lon: 123.85W
Wx Zone: ORZ004
Local Info
Past Weather Observations for Friday, August 19, 2016

NOTE: This archive is for the closest National Weather Service station to Lincoln County. Information may differ from the station used for current weather conditions.

Click here for Long-term Archive

Time Weather Temperature Dewpoint Humidity Pressure Winds Precip Visibility
23:55
Mostly Cloudy
50°F / 10°C 50°F / 10°C 100% 29.98 in
(1015 mb)
S 6.9 mph
(S 11 kph)
- 10SM
23:35
Partly Cloudy
52°F / 11°C 50°F / 10°C 94% 29.98 in
(1015 mb)
S 9.2 mph
(S 15 kph)
- 10SM
23:15
Clear
Fog And Mist
52°F / 11°C 50°F / 10°C 94% 29.98 in
(1015 mb)
SSE 6.9 mph
(SSE 11 kph)
- 4SM
22:55
Partly Cloudy
Fog And Mist
52°F / 11°C 50°F / 10°C 94% 29.98 in
(1015 mb)
SW 4.6 mph
(SW 7 kph)
- 4SM
22:35
Partly Cloudy
Fog And Mist
52°F / 11°C 50°F / 10°C 94% 29.98 in
(1015 mb)
SW 5.8 mph
(SW 9 kph)
- 4SM
22:15
Overcast
54°F / 12°C 54°F / 12°C 100% 29.95 in
(1014 mb)
SSE 4.6 mph
(SSE 7 kph)
- 7SM
21:55
Overcast
Fog And Mist
55°F / 13°C 54°F / 12°C 94% 29.95 in
(1014 mb)
S 9.2 mph
(S 15 kph)
- 5SM
21:35
Overcast
Fog And Mist
55°F / 13°C 54°F / 12°C 94% 29.95 in
(1014 mb)
S 8.1 mph
(S 13 kph)
- 5SM
21:15
Partly Cloudy
55°F / 13°C 54°F / 12°C 94% 29.95 in
(1014 mb)
S 6.9 mph
(S 11 kph)
- 7SM
20:55
Mostly Cloudy
55°F / 13°C 54°F / 12°C 94% 29.95 in
(1014 mb)
SSE 8.1 mph
(SSE 13 kph)
- 10SM
20:35
Partly Cloudy
55°F / 13°C 54°F / 12°C 94% 29.95 in
(1014 mb)
S 9.2 mph
(S 15 kph)
- 7SM
20:15
Clear
55°F / 13°C 54°F / 12°C 94% 29.95 in
(1014 mb)
S 8.1 mph
(S 13 kph)
- 7SM
19:55
Clear
57°F / 14°C 55°F / 13°C 94% 29.95 in
(1014 mb)
S 8.1 mph
(S 13 kph)
- 7SM
19:35
Clear
59°F / 15°C 55°F / 13°C 88% 29.92 in
(1013 mb)
S 9.2 mph
(S 15 kph)
- 7SM
19:15
Clear
59°F / 15°C 55°F / 13°C 88% 29.92 in
(1013 mb)
S 9.2 mph
(S 15 kph)
- 7SM
18:55
Clear
61°F / 16°C 55°F / 13°C 83% 29.92 in
(1013 mb)
SSE 10.4 mph
(SSE 17 kph)
- 7SM
18:35
Clear
61°F / 16°C 55°F / 13°C 83% 29.92 in
(1013 mb)
SW 10.4 mph
(SW 17 kph)
- 7SM
18:15
Clear
63°F / 17°C 55°F / 13°C 77% 29.92 in
(1013 mb)
SW 11.5 mph
(SW 19 kph)
- 7SM
17:55
Clear
63°F / 17°C 55°F / 13°C 77% 29.92 in
(1013 mb)
SW 11.5 mph
(SW 19 kph)
- 10SM
17:35
Clear
63°F / 17°C 55°F / 13°C 77% 29.92 in
(1013 mb)
SW 11.5 mph
(SW 19 kph)
- 7SM
17:15
Clear
64°F / 18°C 55°F / 13°C 73% 29.89 in
(1012 mb)
SW 11.5 mph
(SW 19 kph)
- 10SM
16:55
Clear
64°F / 18°C 55°F / 13°C 73% 29.89 in
(1012 mb)
SW 15 mph
(SW 24 kph)
- 10SM
16:35
Clear
68°F / 20°C 55°F / 13°C 64% 29.89 in
(1012 mb)
SW 12.7 mph
(SW 20 kph)
- 7SM
16:15
Clear
Hazy
70°F / 21°C 55°F / 13°C 60% 29.89 in
(1012 mb)
SW 11.5 mph
(SW 19 kph)
- 5SM
15:35
Clear
72°F / 22°C 54°F / 12°C 53% 29.89 in
(1012 mb)
SW 8.1 mph
(SW 13 kph)
- 7SM
15:15
Clear
70°F / 21°C 54°F / 12°C 57% 29.89 in
(1012 mb)
SW 6.9 mph
(SW 11 kph)
- 7SM
14:55
Clear
68°F / 20°C 55°F / 13°C 64% 29.89 in
(1012 mb)
SSW 5.8 mph
(SSW 9 kph)
- 7SM
14:35
Clear
70°F / 21°C 55°F / 13°C 60% 29.89 in
(1012 mb)
SSW 5.8 mph
(SSW 9 kph)
- 7SM
14:15
Clear
72°F / 22°C 55°F / 13°C 57% 29.92 in
(1013 mb)
SSW 4.6 mph
(SSW 7 kph)
- 7SM
13:55
Clear
70°F / 21°C 57°F / 14°C 64% 29.92 in
(1013 mb)
WNW 3.5 mph
(WNW 6 kph)
- 7SM
13:35
Clear
70°F / 21°C 57°F / 14°C 64% 29.92 in
(1013 mb)
NW 4.6 mph
(NW 7 kph)
- 7SM
13:15
Clear
70°F / 21°C 57°F / 14°C 64% 29.92 in
(1013 mb)
W 4.6 mph
(W 7 kph)
- 10SM
12:55
Clear
72°F / 22°C 59°F / 15°C 65% 29.92 in
(1013 mb)
NW 5.8 mph
(NW 9 kph)
- 10SM
12:35
Clear
73°F / 23°C 59°F / 15°C 61% 29.92 in
(1013 mb)
NW 4.6 mph
(NW 7 kph)
- 10SM
12:15
Clear
77°F / 25°C 57°F / 14°C 51% 29.92 in
(1013 mb)
NNW 4.6 mph
(NNW 7 kph)
- 10SM
11:55
Clear
77°F / 25°C 59°F / 15°C 54% 29.92 in
(1013 mb)
Calm - 10SM
11:35
Clear
77°F / 25°C 59°F / 15°C 54% 29.92 in
(1013 mb)
W 3.5 mph
(W 6 kph)
- 10SM
11:15
Clear
73°F / 23°C 59°F / 15°C 61% 29.92 in
(1013 mb)
SSW 4.6 mph
(SSW 7 kph)
- 10SM
10:55
Clear
70°F / 21°C 59°F / 15°C 69% 29.92 in
(1013 mb)
SW 3.5 mph
(SW 6 kph)
- 10SM
10:35
Clear
Hazy
63°F / 17°C 55°F / 13°C 77% 29.95 in
(1014 mb)
SW 3.5 mph
(SW 6 kph)
- 5SM
10:15
Clear
Hazy
68°F / 20°C 57°F / 14°C 69% 29.95 in
(1014 mb)
SSW 5.8 mph
(SSW 9 kph)
- 5SM
09:55
Clear
68°F / 20°C 57°F / 14°C 69% 29.95 in
(1014 mb)
SSW 3.5 mph
(SSW 6 kph)
- 7SM
09:35
Clear
Hazy
68°F / 20°C 57°F / 14°C 69% 29.95 in
(1014 mb)
SSW 4.6 mph
(SSW 7 kph)
- 4SM
09:15
Clear
Hazy
68°F / 20°C 59°F / 15°C 73% 29.92 in
(1013 mb)
SSW 3.5 mph
(SSW 6 kph)
- 4SM
08:55
Clear
Hazy
64°F / 18°C 57°F / 14°C 78% 29.92 in
(1013 mb)
SW 4.6 mph
(SW 7 kph)
- 5SM
08:35
Clear
Hazy
63°F / 17°C 55°F / 13°C 77% 29.92 in
(1013 mb)
SW 3.5 mph
(SW 6 kph)
- 4SM
08:15
Hazy
61°F / 16°C 55°F / 13°C 83% 29.92 in
(1013 mb)
SW 3.5 mph
(SW 6 kph)
- 3SM
07:55
Clear
Fog And Mist
61°F / 16°C 55°F / 13°C 83% 29.92 in
(1013 mb)
Calm - 4SM
07:35
Clear
Hazy
63°F / 17°C 57°F / 14°C 83% 29.92 in
(1013 mb)
NW 3.5 mph
(NW 6 kph)
- 5SM
07:15
Clear
61°F / 16°C 59°F / 15°C 94% 29.92 in
(1013 mb)
Calm - 7SM
06:55
Clear
59°F / 15°C 57°F / 14°C 94% 29.92 in
(1013 mb)
Calm - 7SM
06:35
Clear
Fog And Mist
54°F / 12°C 54°F / 12°C 100% 29.92 in
(1013 mb)
Calm - 4SM
06:15
Clear
Fog And Mist
55°F / 13°C 54°F / 12°C 94% 29.92 in
(1013 mb)
Calm - 4SM
05:55
Clear
Fog And Mist
54°F / 12°C 52°F / 11°C 94% 29.92 in
(1013 mb)
Calm - 5SM
05:35
Clear
Fog And Mist
52°F / 11°C 52°F / 11°C 100% 29.89 in
(1012 mb)
Calm - 4SM
05:15
Clear
Fog And Mist
52°F / 11°C 52°F / 11°C 100% 29.89 in
(1012 mb)
Calm - 4SM
04:55
Clear
52°F / 11°C 52°F / 11°C 100% 29.89 in
(1012 mb)
Calm - 7SM
04:35
Clear
Fog And Mist
52°F / 11°C 52°F / 11°C 100% 29.89 in
(1012 mb)
Calm - 5SM
04:15
Clear
Fog And Mist
52°F / 11°C 50°F / 10°C 94% 29.89 in
(1012 mb)
Calm - 4SM
03:55
Clear
Fog And Mist
52°F / 11°C 52°F / 11°C 100% 29.89 in
(1012 mb)
Calm - 4SM
03:35
Clear
Fog And Mist
52°F / 11°C 50°F / 10°C 94% 29.89 in
(1012 mb)
Calm - 4SM
03:15
Fog And Mist
50°F / 10°C 50°F / 10°C 100% 29.89 in
(1012 mb)
Calm - 3SM
02:55
Fog And Mist
52°F / 11°C 50°F / 10°C 94% 29.89 in
(1012 mb)
Calm - 2 1/2SM
02:35
Fog And Mist
52°F / 11°C 50°F / 10°C 94% 29.89 in
(1012 mb)
Calm - 3SM
02:15
Clear
54°F / 12°C 52°F / 11°C 94% 29.89 in
(1012 mb)
Calm - 7SM
01:55
Clear
54°F / 12°C 52°F / 11°C 94% 29.89 in
(1012 mb)
Calm - 7SM
01:35
Clear
57°F / 14°C 55°F / 13°C 94% 29.89 in
(1012 mb)
Calm - 7SM
01:15
Clear
54°F / 12°C 52°F / 11°C 94% 29.89 in
(1012 mb)
Calm - 7SM
00:55
Clear
Fog And Mist
54°F / 12°C 54°F / 12°C 100% 29.89 in
(1012 mb)
Calm - 5SM
00:35
Fair
54°F / 12°C 52°F / 11°C 94% 29.89 in
(1012 mb)
Calm -
00:15
Clear
52°F / 11°C 52°F / 11°C 100% 29.89 in
(1012 mb)
Calm - 7SM
Time Weather Temperature Dewpoint Humidity Pressure Winds Precip Visibility


Weather for websites

WeatherForYou.com, LLC is not responsible for any damages or problems caused by this service. Current weather conditions are obtained from the closest station including government and personal stations which may have varying degrees of accuracy. Weather forecasts are derived from the NOAA NDFD. Like all things, this site belongs to Jesus Christ... He just trusts us to maintain it. If you have any questions or comments email webmaster@weatherforyou.com

Copyright © 2016, WeatherForYou.com LLC. All rights reserved.